CW4621 Weather Reports


Display with metric or nautical units.
time (UTC)temp
F
wind
direction
speed
MPH
gust
MPH
rain 1hr
in
rain 24hr
in
rain mn
in
humidity
%
barometer
mb
20260510054105 50 65 0.0 0.0 0.00 0.01 0.00 87 1009.9
20260510053605 51 65 0.0 0.0 0.00 0.01 0.00 87 1010.0
20260510053105 51 65 0.0 0.0 0.00 0.01 0.00 87 1010.0
20260510052104 51 65 0.0 0.0 0.00 0.01 0.00 87 1010.0
20260510051604 51 65 0.0 0.0 0.00 0.01 0.00 86 1010.1
20260510051105 51 65 0.0 0.0 0.00 0.01 0.00 85 1010.0
20260510050105 51 65 0.0 0.0 0.00 0.01 0.00 84 1010.1
20260510045605 51 65 0.0 0.0 0.00 0.01 0.00 83 1010.2
20260510045105 51 65 0.0 0.0 0.00 0.01 0.00 83 1010.2
20260510044605 52 65 0.0 0.0 0.00 0.01 0.00 83 1010.2
20260510043604 52 65 0.0 0.0 0.00 0.01 0.00 83 1010.3
20260510043105 52 65 0.0 0.0 0.00 0.01 0.00 83 1010.3
20260510042605 52 65 0.0 0.0 0.00 0.01 0.00 83 1010.3
20260510041605 53 65 0.0 0.0 0.00 0.01 0.00 83 1010.3
20260510041105 53 65 0.0 0.0 0.00 0.01 0.00 83 1010.3
20260510040605 53 65 0.0 0.0 0.00 0.01 0.00 83 1010.3
20260510040105 53 65 0.0 1.0 0.00 0.01 0.00 83 1010.3
20260510035604 53 65 0.0 0.0 0.00 0.01 0.01 83 1010.4
20260510035104 53 65 0.0 0.0 0.00 0.01 0.01 83 1010.3
20260510034105 54 75 0.0 1.0 0.00 0.01 0.01 83 1010.2
20260510033105 54 70 0.0 1.0 0.00 0.01 0.01 83 1009.9
20260510031605 53 70 0.0 1.0 0.00 0.01 0.01 81 1009.9
20260510031105 53 70 0.0 1.0 0.00 0.01 0.01 81 1009.9
20260510030604 53 70 0.0 0.0 0.00 0.01 0.01 81 1009.8
20260510030104 54 70 0.0 0.0 0.00 0.01 0.01 81 1009.8
20260510025605 54 70 0.0 2.0 0.00 0.01 0.01 81 1009.7
20260510025105 54 67 0.0 0.0 0.00 0.01 0.01 81 1009.7
20260510024605 54 61 0.0 1.0 0.00 0.01 0.01 81 1009.8
20260510024105 54 61 0.0 0.0 0.00 0.01 0.01 81 1009.9
20260510023604 54 61 0.0 0.0 0.00 0.01 0.01 80 1009.9
20260510023104 54 61 0.0 1.0 0.00 0.01 0.01 81 1009.8
20260510022605 54 61 0.0 1.0 0.00 0.01 0.01 80 1009.8
20260510022104 54 61 0.0 0.0 0.00 0.01 0.01 80 1009.8
20260510021604 54 61 0.0 1.0 0.00 0.01 0.01 81 1009.8
20260510021104 54 61 0.0 1.0 0.00 0.01 0.01 81 1009.8
20260510020605 54 56 0.0 1.0 0.00 0.01 0.01 80 1009.8
20260510020104 54 24 0.0 0.0 0.00 0.01 0.01 80 1009.8
20260510015604 54 23 0.0 1.0 0.00 0.01 0.01 80 1009.7
20260510015105 54 20 0.0 0.0 0.00 0.01 0.01 80 1009.7
20260510014605 54 20 0.0 0.0 0.00 0.01 0.01 80 1009.8
20260510013605 54 20 0.0 0.0 0.00 0.01 0.01 79 1009.7
20260510013105 54 20 0.0 0.0 0.00 0.01 0.01 79 1009.8
20260510012605 54 20 0.0 0.0 0.00 0.01 0.01 78 1009.7
20260510011606 54 20 0.0 0.0 0.00 0.01 0.01 78 1009.6
20260510010604 55 20 0.0 0.0 0.00 0.01 0.01 77 1009.5
20260510005605 55 20 0.0 0.0 0.00 0.01 0.01 77 1009.5
20260510005105 55 20 0.0 0.0 0.00 0.01 0.01 77 1009.5
20260510004104 56 20 0.0 0.0 0.00 0.01 0.01 76 1009.5
20260510003606 56 20 0.0 0.0 0.00 0.01 0.01 76 1009.5
20260510002606 57 19 0.0 0.0 0.00 0.01 0.01 76 1009.5
20260510002104 57 19 0.0 0.0 0.00 0.01 0.01 75 1009.5
20260510001605 57 19 0.0 0.0 0.00 0.01 0.01 75 1009.5
20260510001105 57 19 0.0 0.0 0.00 0.01 0.01 74 1009.5
20260510000605 58 19 0.0 0.0 0.00 0.01 0.01 74 1009.4
20260510000104 58 19 0.0 0.0 0.00 0.01 0.01 74 1009.5
20260509235604 59 19 0.0 0.0 0.00 0.01 0.01 74 1009.5
20260509235105 59 20 0.0 1.0 0.00 0.01 0.01 73 1009.5
20260509234605 59 20 0.0 1.0 0.00 0.01 0.01 73 1009.4
20260509234105 59 8 0.0 1.0 0.00 0.01 0.01 73 1009.4
20260509233605 60 4 0.0 1.0 0.00 0.01 0.01 72 1009.3
20260509233104 60 4 0.0 1.0 0.00 0.01 0.01 72 1009.2
20260509232105 60 74 0.0 3.0 0.00 0.01 0.01 72 1009.1
20260509231605 60 68 0.0 3.0 0.00 0.01 0.01 72 1009.0
20260509231105 60 71 0.0 2.0 0.00 0.01 0.01 72 1008.9
20260509230604 60 22 0.0 3.0 0.00 0.01 0.01 72 1009.0
20260509230105 60 7 0.0 1.0 0.00 0.01 0.01 72 1009.1
20260509225605 60 5 0.0 1.0 0.00 0.01 0.01 71 1009.1
20260509225104 60 5 1.0 2.0 0.00 0.01 0.01 71 1009.2
20260509224104 61 314 0.0 3.0 0.00 0.01 0.01 70 1009.2
20260509223604 61 23 0.0 1.0 0.00 0.01 0.01 70 1009.2
20260509223105 61 358 1.0 3.0 0.00 0.01 0.01 70 1009.1
20260509222605 61 357 0.0 2.0 0.00 0.01 0.01 70 1009.2
20260509222105 61 6 1.0 3.0 0.00 0.01 0.01 70 1009.1
20260509221605 61 4 0.0 1.0 0.00 0.01 0.01 70 1009.2
20260509221105 61 26 0.0 1.0 0.00 0.01 0.01 69 1009.3
20260509220606 61 353 0.0 2.0 0.00 0.01 0.01 69 1009.3
20260509220105 61 49 1.0 3.0 0.00 0.01 0.01 69 1009.4
20260509215605 61 357 0.0 2.0 0.00 0.01 0.01 68 1009.5
20260509214604 62 314 1.0 2.0 0.00 0.01 0.01 67 1009.5
20260509214105 62 9 0.0 2.0 0.00 0.01 0.01 66 1009.4
20260509213605 62 357 0.0 2.0 0.00 0.01 0.01 66 1009.4
20260509213105 62 350 1.0 3.0 0.00 0.01 0.01 66 1009.5
20260509212604 63 313 0.0 3.0 0.00 0.01 0.01 66 1009.6
20260509211604 63 284 1.0 2.0 0.00 0.01 0.01 66 1009.6
20260509211105 63 356 1.0 5.0 0.00 0.01 0.01 65 1009.6
20260509210605 63 341 1.0 3.0 0.00 0.01 0.01 65 1009.5
20260509210104 63 15 2.0 3.0 0.00 0.01 0.01 63 1009.3
20260509205605 64 280 1.0 3.0 0.00 0.01 0.01 65 1009.2
20260509205105 63 353 0.0 3.0 0.00 0.01 0.01 65 1009.3
20260509204605 63 316 2.0 5.0 0.00 0.01 0.01 64 1009.4
20260509204105 64 290 2.0 3.0 0.00 0.01 0.01 64 1009.4
20260509203604 63 155 1.0 2.0 0.00 0.01 0.01 65 1009.4
20260509203104 63 323 1.0 3.0 0.00 0.01 0.01 64 1009.2
20260509202605 63 343 0.0 2.0 0.00 0.01 0.01 65 1009.1
20260509201604 63 47 1.0 2.0 0.01 0.01 0.01 64 1009.2
20260509200605 63 270 2.0 3.0 0.01 0.01 0.01 65 1009.2
20260509200104 63 93 1.0 5.0 0.01 0.01 0.01 65 1009.2
20260509195604 63 327 0.0 2.0 0.01 0.01 0.01 66 1009.2
20260509195104 62 320 3.0 7.0 0.01 0.01 0.01 65 1009.2
20260509194604 63 325 2.0 7.0 0.01 0.01 0.01 65 1009.3
20260509194104 63 320 1.0 3.0 0.01 0.01 0.01 67 1009.2
20260509193604 63 295 1.0 3.0 0.01 0.01 0.01 67 1009.2
20260509193105 63 318 0.0 6.0 0.01 0.01 0.01 69 1009.1
20260509192604 63 329 1.0 5.0 0.01 0.01 0.01 68 1009.3
20260509192104 63 69 1.0 3.0 0.01 0.01 0.01 68 1009.2
20260509191604 63 282 1.0 3.0 0.00 0.00 0.00 67 1009.3
20260509190605 63 356 0.0 2.0 0.00 0.00 0.00 69 1009.7
20260509184604 63 328 1.0 3.0 0.00 0.00 0.00 69 1009.8
20260509184105 63 352 1.0 3.0 0.00 0.00 0.00 68 1009.8
20260509183105 63 339 0.0 2.0 0.00 0.00 0.00 68 1009.7
20260509182605 64 321 0.0 3.0 0.00 0.00 0.00 67 1009.6
20260509182104 64 283 2.0 3.0 0.00 0.00 0.00 64 1009.7
20260509181604 65 319 1.0 6.0 0.00 0.00 0.00 60 1009.7
20260509181105 65 279 2.0 5.0 0.00 0.00 0.00 59 1009.7
20260509180605 65 275 1.0 3.0 0.00 0.00 0.00 58 1009.7
20260509180105 66 339 1.0 6.0 0.00 0.00 0.00 58 1009.7
20260509175605 66 316 1.0 5.0 0.00 0.00 0.00 57 1009.5
20260509175105 67 297 2.0 5.0 0.00 0.00 0.00 56 1009.6
20260509174605 68 285 2.0 5.0 0.00 0.00 0.00 55 1009.4
20260509174105 68 293 1.0 3.0 0.00 0.00 0.00 55 1009.4
20260509173605 69 331 1.0 3.0 0.00 0.00 0.00 55 1009.5
20260509172605 70 42 1.0 3.0 0.00 0.00 0.00 54 1009.6
20260509171605 71 139 3.0 10.0 0.00 0.00 0.00 49 1009.5
20260509171105 71 198 2.0 7.0 0.00 0.00 0.00 49 1009.6
20260509170105 71 78 2.0 5.0 0.00 0.00 0.00 49 1009.6
20260509165604 71 165 3.0 12.0 0.00 0.00 0.00 49 1009.6
20260509165105 71 169 4.0 10.0 0.00 0.00 0.00 48 1009.6
20260509164605 71 160 2.0 9.0 0.00 0.00 0.00 49 1009.6
20260509164105 71 191 4.0 10.0 0.00 0.00 0.00 49 1009.5
20260509163605 71 141 4.0 9.0 0.00 0.00 0.00 48 1009.5
20260509163105 72 163 2.0 8.0 0.00 0.00 0.00 48 1009.6
20260509162605 72 263 3.0 12.0 0.00 0.00 0.00 48 1009.6
20260509162105 72 180 3.0 7.0 0.00 0.00 0.00 48 1009.8
20260509161105 71 159 1.0 8.0 0.00 0.00 0.00 52 1010.2
20260509160605 71 193 3.0 9.0 0.00 0.00 0.00 51 1010.3
20260509160105 70 134 3.0 9.0 0.00 0.00 0.00 51 1010.4
20260509155606 70 153 4.0 10.0 0.00 0.00 0.00 50 1010.6
20260509155105 70 128 2.0 5.0 0.00 0.00 0.00 51 1010.6
20260509154605 70 191 3.0 10.0 0.00 0.00 0.00 52 1010.7
20260509154105 70 209 2.0 7.0 0.00 0.00 0.00 52 1010.8
20260509153605 70 229 2.0 8.0 0.00 0.00 0.00 52 1010.8
20260509153105 70 140 2.0 8.0 0.00 0.00 0.00 52 1010.9
20260509152605 70 160 3.0 10.0 0.00 0.00 0.00 51 1010.9
20260509152105 69 196 3.0 7.0 0.00 0.00 0.00 52 1011.1
20260509151605 69 265 4.0 15.0 0.00 0.00 0.00 52 1011.1
20260509151104 69 193 4.0 10.0 0.00 0.00 0.00 51 1011.1
20260509150604 69 135 3.0 9.0 0.00 0.00 0.00 52 1011.1
20260509150105 69 155 3.0 8.0 0.00 0.00 0.00 54 1011.1
20260509144605 68 139 2.0 13.0 0.00 0.00 0.00 56 1011.0
20260509144105 68 199 2.0 8.0 0.00 0.00 0.00 56 1011.0
20260509143104 68 162 5.0 13.0 0.00 0.00 0.00 56 1011.0
20260509142605 68 153 2.0 7.0 0.00 0.00 0.00 57 1010.9
20260509142105 68 172 3.0 5.0 0.00 0.00 0.00 57 1010.8
20260509141605 67 158 2.0 8.0 0.00 0.00 0.00 59 1010.8
20260509140604 67 119 4.0 10.0 0.00 0.00 0.00 58 1010.8
20260509135604 66 160 2.0 12.0 0.00 0.00 0.00 60 1010.9
20260509135105 66 150 2.0 7.0 0.00 0.00 0.00 61 1010.8
20260509134605 66 132 2.0 9.0 0.00 0.00 0.00 61 1010.9
20260509134105 65 162 3.0 8.0 0.00 0.00 0.00 61 1011.0
20260509133604 65 105 1.0 5.0 0.00 0.00 0.00 62 1011.0
20260509133104 64 143 2.0 8.0 0.00 0.00 0.00 63 1011.0
20260509132605 64 126 2.0 7.0 0.00 0.00 0.00 63 1011.1
20260509132105 63 150 1.0 3.0 0.00 0.00 0.00 65 1011.1
20260509131605 63 108 1.0 3.0 0.00 0.00 0.00 65 1011.2
20260509131105 62 68 1.0 7.0 0.00 0.00 0.00 66 1011.2
20260509130105 62 179 2.0 6.0 0.00 0.00 0.00 66 1011.2
20260509125605 62 154 2.0 6.0 0.00 0.00 0.00 66 1011.3
20260509125104 61 143 1.0 5.0 0.00 0.00 0.00 67 1011.3
20260509124605 61 207 1.0 3.0 0.00 0.00 0.00 68 1011.3
20260509123605 61 114 2.0 5.0 0.00 0.00 0.00 68 1011.2
20260509123105 60 123 2.0 5.0 0.00 0.00 0.00 68 1011.2
20260509122104 60 128 2.0 5.0 0.00 0.00 0.00 69 1011.2
20260509121605 60 100 3.0 8.0 0.00 0.00 0.00 69 1011.2
20260509120604 59 130 2.0 6.0 0.00 0.00 0.00 70 1011.3
20260509120105 59 128 3.0 7.0 0.00 0.00 0.00 70 1011.3
20260509115605 59 105 2.0 7.0 0.00 0.00 0.00 70 1011.3
20260509115105 59 289 2.0 7.0 0.00 0.00 0.00 70 1011.4
20260509114605 59 123 1.0 5.0 0.00 0.00 0.00 70 1011.4
20260509114105 59 133 3.0 7.0 0.00 0.00 0.00 70 1011.4
20260509113604 59 109 2.0 6.0 0.00 0.00 0.00 70 1011.3
20260509113104 59 163 1.0 3.0 0.00 0.00 0.00 70 1011.3
20260509112605 59 129 1.0 6.0 0.00 0.00 0.00 70 1011.3
20260509112105 59 141 3.0 9.0 0.00 0.00 0.00 70 1011.3
20260509111605 59 122 1.0 8.0 0.00 0.00 0.00 70 1011.3
20260509111104 59 143 2.0 5.0 0.00 0.00 0.00 70 1011.4
20260509110604 58 156 2.0 7.0 0.00 0.00 0.00 70 1011.4
20260509110105 58 116 2.0 7.0 0.00 0.00 0.00 70 1011.3
20260509105104 58 124 1.0 3.0 0.00 0.00 0.00 70 1011.2
20260509104605 58 132 1.0 9.0 0.00 0.00 0.00 70 1011.2
20260509104108 58 152 2.0 6.0 0.00 0.00 0.00 70 1011.1
20260509103604 57 120 2.0 5.0 0.00 0.00 0.00 70 1011.0
20260509103104 57 144 1.0 5.0 0.00 0.00 0.00 70 1011.1
20260509102605 57 131 1.0 3.0 0.00 0.00 0.00 70 1011.1
20260509102105 57 129 1.0 7.0 0.00 0.00 0.00 70 1011.1
20260509101604 57 109 2.0 8.0 0.00 0.00 0.00 70 1011.1
20260509101104 57 135 1.0 2.0 0.00 0.00 0.00 69 1011.2
20260509100105 57 146 1.0 3.0 0.00 0.00 0.00 69 1011.1
20260509095104 57 116 1.0 6.0 0.00 0.00 0.00 69 1011.0
20260509094105 57 120 2.0 6.0 0.00 0.00 0.00 69 1011.1
20260509093605 56 137 1.0 3.0 0.00 0.00 0.00 70 1011.1
20260509093104 56 163 1.0 2.0 0.00 0.00 0.00 70 1011.1
20260509092605 56 87 1.0 6.0 0.00 0.00 0.00 70 1011.1
20260509092105 56 163 0.0 3.0 0.00 0.00 0.00 70 1011.0
20260509091604 55 52 0.0 2.0 0.00 0.00 0.00 70 1011.0
20260509091104 55 139 1.0 3.0 0.00 0.00 0.00 70 1011.1
20260509090604 55 115 1.0 3.0 0.00 0.00 0.00 69 1011.1
20260509090104 55 116 1.0 3.0 0.00 0.00 0.00 69 1011.1
20260509085604 54 128 1.0 5.0 0.00 0.00 0.00 69 1011.1
20260509085104 54 126 0.0 2.0 0.00 0.00 0.00 69 1011.1
20260509084104 54 100 1.0 2.0 0.00 0.00 0.00 69 1011.1
20260509083604 54 112 1.0 2.0 0.00 0.00 0.00 69 1011.1
20260509083105 53 120 0.0 2.0 0.00 0.00 0.00 69 1011.2
20260509082605 53 164 1.0 3.0 0.00 0.00 0.00 69 1011.1
20260509081604 53 102 0.0 1.0 0.00 0.00 0.00 68 1011.5
20260509080604 53 113 0.0 0.0 0.00 0.00 0.00 66 1011.6
20260509075604 54 114 0.0 1.0 0.00 0.00 0.00 65 1011.7
20260509075104 54 106 0.0 1.0 0.00 0.00 0.00 65 1011.6
20260509074604 55 73 0.0 2.0 0.00 0.00 0.00 64 1011.6
20260509074104 55 140 0.0 1.0 0.00 0.00 0.00 64 1011.6
20260509073604 55 123 0.0 3.0 0.00 0.00 0.00 64 1011.6
20260509072605 56 129 1.0 2.0 0.00 0.00 0.00 63 1011.6
20260509072104 56 110 1.0 3.0 0.00 0.00 0.00 63 1011.7
20260509071604 56 114 0.0 2.0 0.00 0.00 0.00 62 1011.6
20260509071104 56 120 0.0 2.0 0.00 0.00 0.00 62 1011.7
20260509070604 56 121 0.0 1.0 0.00 0.00 0.00 61 1011.8
20260509070104 56 117 0.0 0.0 0.00 0.00 0.00 61 1011.8
20260509065604 56 117 0.0 2.0 0.00 0.00 0.00 61 1011.9
20260509065104 56 144 0.0 2.0 0.00 0.00 0.00 60 1012.0
20260509064605 57 108 1.0 2.0 0.00 0.00 0.00 60 1011.9
20260509064105 57 192 1.0 3.0 0.00 0.00 0.00 59 1012.0
20260509063605 57 133 1.0 3.0 0.00 0.00 0.00 59 1012.0
20260509063105 57 105 0.0 1.0 0.00 0.00 0.00 58 1012.0
20260509062605 57 89 0.0 2.0 0.00 0.00 0.00 58 1012.1
20260509061605 57 115 0.0 0.0 0.00 0.00 0.00 57 1012.2
20260509061104 57 115 0.0 1.0 0.00 0.00 0.00 57 1012.3
20260509060604 57 157 0.0 1.0 0.00 0.00 0.00 57 1012.3
20260509060105 58 112 0.0 2.0 0.00 0.00 0.00 57 1012.3
20260509055104 58 130 0.0 1.0 0.00 0.00 0.00 56 1012.3
20260509054604 58 143 0.0 1.0 0.00 0.00 0.00 56 1012.3